Location: Kikino
(54.4440°N, 112.0940°W)
Time: 23:20:56
(UTC+00:00)

Vanguard 3 - Pass Details

Date: 28 May 2024
Orbit: 509 x 3231 km, 33.3° (Epoch: 21 June)

Event Time Altitude Azimuth Distance (km) Brightness Sun altitude
Rises 05:50:09 0° 255° (WSW) 4,978 11.3 -11.3°
Reaches altitude 10° 05:54:44 10° 237° (WSW) 4,471 10.8 -11.5°
Maximum altitude 06:01:59 17° 203° (SSW) 4,541 10.5 -11.9°
Enters shadow 06:09:08 12° 175° (S) 5,426 10.7 -12.2°
